Home > Weather > Oranienburg > Past weeks

Flag for Germany Weather for the Past 2 Weeks in Oranienburg, Brandenburg, Germany

Now
43 °F

Scattered clouds.


Feels Like: 39 °F
Forecast: 32 / 41 °F
Wind: 7 mph from West

Location: Berlin-Tegel

Current Time: Feb 12, 2016 at 4:02:51 PM

Latest Report: Feb 12, 2016 at 3:20 PM


Visibility: N/A

Pressure: 29.56 "Hg

Humidity: 61%

Dew point: 30 °F

Location of OranienburgLocation

Historic Weather in Oranienburg — Graph

°F

Oranienburg Temperature Yesterday

Maximum temperature yesterday: 43 °F (at 3:20 PM)
Minimum temperature yesterday: 32 °F (at 11:50 PM)
Average temperature yesterday: 39 °F

High & Low Weather Summary for the Past Weeks

 TemperatureHumidityPressure
High54 °F (Feb 2, 12:50 PM)100% (Feb 1, 12:20 PM)30.24 "Hg (Feb 1, 12:20 PM)
Low30 °F (Feb 5, 5:20 AM)44% (Feb 2, 1:20 PM)28.94 "Hg (Feb 9, 9:50 PM)
Average43 °F75%29.74 "Hg
* Reported Jan 28 2:20 PM — Feb 12 2:50 PM, Oranienburg, Weather by CustomWeather, © 2016

Note: Actual official high and low records may vary slightly from our data, if they occured in-between our weather recording intervals... More about our weather records

Advertising

Oranienburg Weather History for the Previous 24 Hours

 ConditionsComfort  
Time TempWeatherWind HumidityBarometerVisibility
2:50 PM
Fri, Feb 12
43 °FScattered clouds.8 mph66%29.56 "HgN/A
2:20 PM43 °FScattered clouds.9 mph61%29.56 "HgN/A
1:50 PM41 °FScattered clouds.8 mph70%29.56 "HgN/A
1:20 PM41 °FPartly sunny.10 mph70%29.59 "HgN/A
12:50 PM43 °FScattered clouds.10 mph66%29.59 "HgN/A
12:20 PM41 °FScattered clouds.9 mph70%29.59 "HgN/A
11:50 AM41 °FScattered clouds.12 mph76%29.62 "HgN/A
11:20 AM39 °FPartly sunny.10 mph81%29.62 "HgN/A
10:50 AM39 °FPartly sunny.10 mph75%29.62 "HgN/A
10:20 AM37 °FPartly sunny.10 mph81%29.62 "HgN/A
9:50 AM37 °FPartly sunny.10 mph81%29.62 "HgN/A
9:20 AM36 °FPartly sunny.10 mph87%29.62 "HgN/A
8:50 AM36 °FPartly sunny.10 mph81%29.62 "HgN/A
8:20 AM36 °FScattered clouds.12 mph81%29.62 "HgN/A
7:50 AM34 °FPartly sunny.10 mph87%29.62 "HgN/A
7:20 AM32 °FPassing clouds.8 mph93%29.62 "HgN/A
6:50 AM32 °FPassing clouds.9 mph87%29.62 "HgN/A
6:20 AM32 °FClear.10 mph93%29.62 "Hg10 mi
5:50 AM32 °FPassing clouds.9 mph87%29.62 "HgN/A
5:20 AM32 °FClear.9 mph93%29.62 "Hg10 mi
4:50 AM32 °FPassing clouds.9 mph87%29.62 "HgN/A
4:20 AM34 °FClear.10 mph87%29.62 "Hg10 mi
3:50 AM36 °FPassing clouds.10 mph81%29.62 "HgN/A
3:20 AM32 °FClear.8 mph93%29.62 "Hg10 mi
2:50 AM30 °FClear.7 mph93%29.62 "Hg10 mi
2:20 AM32 °FClear.9 mph87%29.62 "Hg10 mi
1:50 AM30 °FClear.8 mph93%29.62 "Hg10 mi
1:20 AM30 °FClear.7 mph86%29.59 "Hg10 mi
12:20 AM34 °FClear.9 mph87%29.59 "Hg10 mi
11:50 PM
Thu, Feb 11
32 °FClear.9 mph87%29.59 "Hg10 mi
10:50 PM34 °FClear.9 mph87%29.59 "Hg10 mi
10:20 PM36 °FClear.10 mph81%29.59 "Hg10 mi
9:50 PM36 °FClear.10 mph87%29.59 "Hg10 mi
9:20 PM36 °FClear.10 mph87%29.59 "Hg10 mi
8:50 PM36 °FClear.10 mph87%29.59 "Hg10 mi
8:20 PM37 °FClear.10 mph81%29.59 "Hg10 mi
7:50 PM37 °FClear.10 mph81%29.59 "Hg10 mi
7:20 PM37 °FClear.13 mph81%29.59 "Hg10 mi
6:50 PM39 °FClear.14 mph75%29.59 "Hg10 mi
6:20 PM39 °FClear.13 mph75%29.56 "Hg10 mi
5:50 PM41 °FPassing clouds.15 mph70%29.56 "HgN/A
5:20 PM43 °FPartly cloudy.12 mph66%29.56 "HgN/A
4:50 PM41 °FBroken clouds.9 mph76%29.56 "HgN/A
4:20 PM41 °FBroken clouds.9 mph76%29.56 "HgN/A
Weather by CustomWeather, © 2016

See weather overviewHow to use our weather pages